^^
Historische Daten
 
Tage Summe für Juli 21, 2018 Einheit:  Metric    English   Beide
« vorheriger Tag
nächster Tag »
Tage Wochen Monate Jahre Benutzerdefiniert
  Aktuell: Max: Min: Durchschnitt:
Temperatur: -5.1 °C -17.8 °C -8.4 °C -7.4 °C
Tau Punkt: -12.1 °C -17.8 °C -12.9 °C -12.7 °C
Luftfeuchte: 45% Humidity% 45% 54%
Windgeschwindigkeit: 29.8km/h 0km/h 2.9km/h 14km/h
Wind Böen: 22km/h 0km/h - -
WindSE - - East
Luftdruck: 34235.8 hPa 0 hPa 34222.3 hPa -
Niederschlag: 0 mm      
Historical Graphs
 
 
Tabellendaten für Juli 21, 2018
Zeit Temperatur Tau Punkt Luftdruck Wind Windgeschwindigkeit Wind Böen Luftfeuchte Regen Rate (Stunde) Conditions
-17.8 °C -17.8 °C 0 hPa Calm     Humidity% 0 mm Conditions
00:04 -6.2 °C -12.2 °C 34252.8 hPa East 17.9 km/h 11.6 km/h 50% 0 mm CLR
00:09 -6.3 °C -12.3 °C 34252.8 hPa ESE 20.9 km/h 13.2 km/h 50% 0 mm CLR
00:14 -6.4 °C -12.4 °C 34252.8 hPa ESE 18.2 km/h 10.9 km/h 50% 0 mm CLR
00:19 -6.5 °C -12.3 °C 34252.8 hPa East 15 km/h 14.8 km/h 51% 0 mm CLR
00:24 -6.6 °C -12.3 °C 34252.8 hPa East 17.9 km/h 8.9 km/h 51% 0 mm CLR
00:29 -6.6 °C -12.4 °C 34256.2 hPa ENE 9 km/h 9.8 km/h 51% 0 mm CLR
00:34 -6.6 °C -12.4 °C 34256.2 hPa ENE 15 km/h 8 km/h 51% 0 mm CLR
00:39 -6.7 °C -12.4 °C 34252.8 hPa East 20.8 km/h 14 km/h 51% 0 mm CLR
00:44 -6.7 °C -12.5 °C 34256.2 hPa ESE 23.8 km/h 9.7 km/h 51% 0 mm CLR
00:49 -6.7 °C -12.6 °C 34252.8 hPa East 15 km/h 6.4 km/h 51% 0 mm CLR
00:54 -6.8 °C -12.6 °C 34259.5 hPa East 17.9 km/h 10.3 km/h 51% 0 mm CLR
00:59 -6.8 °C -12.6 °C 34259.5 hPa East 15 km/h 9 km/h 51% 0 mm CLR
01:04 -6.8 °C -12.7 °C 34259.5 hPa ESE 20.9 km/h 6.4 km/h 51% 0 mm CLR
01:09 -6.9 °C -12.6 °C 34259.5 hPa ESE 11.9 km/h 5.1 km/h 52% 0 mm CLR
01:14 -7 °C -12.6 °C 34259.5 hPa East 9 km/h 6.8 km/h 52% 0 mm CLR
01:19 -7.1 °C -12.7 °C 34259.5 hPa East 15 km/h 9.3 km/h 52% 0 mm CLR
01:24 -7.1 °C -12.7 °C 34256.2 hPa East 20.9 km/h 7.2 km/h 52% 0 mm CLR
01:29 -7.1 °C -12.6 °C 34259.5 hPa ESE 15 km/h 6 km/h 53% 0 mm CLR
01:34 -7.3 °C -12.7 °C 34259.5 hPa ESE 9 km/h 5.6 km/h 53% 0 mm CLR
01:39 -7.3 °C -12.6 °C 34256.2 hPa ESE 9 km/h 5 km/h 54% 0 mm CLR
01:44 -7.3 °C -12.4 °C 34256.2 hPa ESE 6 km/h 1.8 km/h 55% 0 mm CLR
01:49 -7.4 °C -12.6 °C 34256.2 hPa ESE 9 km/h 6.4 km/h 55% 0 mm CLR
01:54 -7.5 °C -12.6 °C 34256.2 hPa ESE 17.9 km/h 6.3 km/h 55% 0 mm CLR
01:59 -7.6 °C -12.7 °C 34259.5 hPa ESE 20.8 km/h 10.3 km/h 55% 0 mm CLR
02:04 -7.6 °C -12.7 °C 34256.2 hPa ESE 11.9 km/h 6.3 km/h 55% 0 mm CLR
02:09 -7.6 °C -12.7 °C 34256.2 hPa ESE 9 km/h 5.6 km/h 55% 0 mm CLR
02:14 -7.6 °C -12.7 °C 34256.2 hPa ESE 9 km/h 4.2 km/h 55% 0 mm CLR
02:19 -7.6 °C -12.7 °C 34252.8 hPa East 9 km/h 5.1 km/h 55% 0 mm CLR
02:24 -7.7 °C -12.8 °C 34252.8 hPa East 9 km/h 3.4 km/h 55% 0 mm CLR
02:29 -7.7 °C -12.8 °C 34252.8 hPa East 9 km/h 5.1 km/h 55% 0 mm CLR
02:34 -7.7 °C -12.7 °C 34249.4 hPa East 9 km/h 5 km/h 56% 0 mm CLR
02:39 -7.7 °C -12.7 °C 34246 hPa East 9 km/h 5.1 km/h 56% 0 mm CLR
02:44 -7.7 °C -12.7 °C 34249.4 hPa East 9 km/h 6.8 km/h 56% 0 mm CLR
02:49 -7.7 °C -12.8 °C 34249.4 hPa East 9 km/h 7.2 km/h 55% 0 mm CLR
02:54 -7.7 °C -12.7 °C 34249.4 hPa East 15 km/h 5.6 km/h 56% 0 mm CLR
02:59 -7.7 °C -12.8 °C 34249.4 hPa East 9 km/h 2.6 km/h 55% 0 mm CLR
03:04 -7.8 °C -12.7 °C 34249.4 hPa East 10.3 km/h 8.2 km/h 56% 0 mm CLR
03:09 -7.8 °C -12.7 °C 34246 hPa East 9 km/h 0.8 km/h 56% 0 mm CLR
03:14 -7.8 °C -12.7 °C 34246 hPa East 10.3 km/h 3.4 km/h 56% 0 mm CLR
03:19 -7.8 °C -12.7 °C 34246 hPa East 9 km/h 7.2 km/h 56% 0 mm CLR
03:24 -7.8 °C -12.7 °C 34246 hPa East 10.3 km/h 8 km/h 56% 0 mm CLR
03:29 -7.8 °C -12.8 °C 34246 hPa East 9 km/h 6.4 km/h 56% 0 mm CLR
03:34 -7.9 °C -12.8 °C 34246 hPa East 9 km/h 6 km/h 56% 0 mm CLR
03:39 -7.9 °C -12.7 °C 34246 hPa East 9 km/h 5.1 km/h 57% 0 mm CLR
03:44 -7.9 °C -12.7 °C 34246 hPa East 9 km/h 5.5 km/h 57% 0 mm CLR
03:49 -8 °C -12.8 °C 34242.6 hPa ESE 17.9 km/h 9.3 km/h 57% 0 mm CLR
03:54 -8 °C -12.8 °C 34246 hPa ESE 15 km/h 5.5 km/h 57% 0 mm CLR
03:59 -8.1 °C -12.8 °C 34242.6 hPa ESE 15 km/h 10.3 km/h 57% 0 mm CLR
04:04 -8.1 °C -12.9 °C 34242.6 hPa ESE 15 km/h 7.2 km/h 57% 0 mm CLR
04:09 -8.1 °C -12.7 °C 34239.2 hPa ESE 15 km/h 5.5 km/h 58% 0 mm CLR
04:14 -8.1 °C -12.7 °C 34235.8 hPa ESE 15 km/h 6 km/h 58% 0 mm CLR
04:19 -8.1 °C -12.7 °C 34235.8 hPa ESE 9 km/h 6.9 km/h 58% 0 mm CLR
04:24 -8.2 °C -12.8 °C 34235.8 hPa East 15 km/h 7.2 km/h 58% 0 mm CLR
04:29 -8.2 °C -12.7 °C 34232.5 hPa East 9 km/h 4.3 km/h 59% 0 mm CLR
04:34 -8.2 °C -12.7 °C 34232.5 hPa East 9 km/h 8.5 km/h 59% 0 mm CLR
04:39 -8.2 °C -12.7 °C 34229.1 hPa East 9 km/h 2.6 km/h 59% 0 mm CLR
04:44 -8.2 °C -12.6 °C 34229.1 hPa East 9 km/h 3.4 km/h 60% 0 mm CLR
04:49 -8.3 °C -12.7 °C 34225.7 hPa ENE 10.3 km/h 5.6 km/h 59% 0 mm CLR
04:54 -8.3 °C -12.8 °C 34229.1 hPa ENE 9 km/h 4.7 km/h 59% 0 mm CLR
04:59 -8.3 °C -12.8 °C 34225.7 hPa ENE 9 km/h 4.2 km/h 59% 0 mm CLR
05:04 -8.3 °C -12.8 °C 34229.1 hPa East 9 km/h 4.2 km/h 59% 0 mm CLR
05:09 -8.4 °C -12.8 °C 34229.1 hPa East 6 km/h 3.9 km/h 59% 0 mm OVC
05:14 -8.4 °C -12.9 °C 34225.7 hPa East 7.7 km/h 3.1 km/h 59% 0 mm OVC
05:19 -8.4 °C -12.8 °C 34225.7 hPa East 6 km/h 3.4 km/h 60% 0 mm OVC
05:24 -8.4 °C -12.8 °C 34225.7 hPa East 15 km/h 6.9 km/h 60% 0 mm OVC
05:29 -8.4 °C -12.9 °C 34225.7 hPa East 10.3 km/h 7.6 km/h 59% 0 mm CLR
05:34 -8.4 °C -12.8 °C 34225.7 hPa East 15 km/h 6.3 km/h 59% 0 mm FEW
05:39 -8.3 °C -12.9 °C 34229.1 hPa ESE 9 km/h 1.8 km/h 58% 0 mm SCT
05:44 -8.3 °C -12.9 °C 34229.1 hPa ESE 9 km/h 5.6 km/h 58% 0 mm BKN
05:49 -8.3 °C -12.9 °C 34229.1 hPa ESE 9 km/h 6.8 km/h 58% 0 mm BKN
05:54 -8.2 °C -12.9 °C 34225.7 hPa East 9 km/h 3.7 km/h 58% 0 mm SCT
05:59 -8.3 °C -12.9 °C 34225.7 hPa East 6 km/h 3.7 km/h 58% 0 mm SCT
06:04 -8.3 °C -12.9 °C 34225.7 hPa East 6 km/h 1.3 km/h 58% 0 mm SCT
06:09 -8.3 °C -12.9 °C 34222.3 hPa East 9 km/h 4.3 km/h 58% 0 mm SCT
06:14 -8.2 °C -12.9 °C 34222.3 hPa East 9 km/h 5.6 km/h 58% 0 mm SCT
06:19 -8.2 °C -12.8 °C 34225.7 hPa East 6 km/h 3.9 km/h 58% 0 mm SCT
06:24 -8.2 °C -12.8 °C 34225.7 hPa East 9 km/h 4.2 km/h 58% 0 mm SCT
06:29 -8.2 °C -12.8 °C 34222.3 hPa East 2.9 km/h 2.9 km/h 58% 0 mm SCT
06:34 -8.2 °C -12.9 °C 34225.7 hPa East 9 km/h 3.9 km/h 57% 0 mm FEW
06:39 -8.1 °C -12.7 °C 34225.7 hPa East 6 km/h 2.1 km/h 58% 0 mm FEW
06:44 -8 °C -12.7 °C 34225.7 hPa East 9 km/h 6 km/h 58% 0 mm FEW
06:49 -8 °C -12.8 °C 34225.7 hPa ENE 10.3 km/h 4.3 km/h 57% 0 mm FEW
06:54 -8 °C -12.8 °C 34229.1 hPa ENE 9 km/h 5.1 km/h 57% 0 mm FEW
06:59 -8 °C -12.8 °C 34229.1 hPa ENE 9 km/h 5.5 km/h 57% 0 mm FEW
07:04 -7.9 °C -12.7 °C 34229.1 hPa ENE 9 km/h 5.5 km/h 57% 0 mm FEW
07:09 -7.9 °C -12.7 °C 34229.1 hPa ENE 9 km/h 7.7 km/h 57% 0 mm FEW
07:14 -7.8 °C -12.7 °C 34229.1 hPa East 15 km/h 7.6 km/h 56% 0 mm FEW
07:19 -7.7 °C -12.7 °C 34229.1 hPa East 18.2 km/h 8.2 km/h 56% 0 mm FEW
07:24 -7.6 °C -12.6 °C 34229.1 hPa ESE 20.9 km/h 13.7 km/h 56% 0 mm CLR
07:29 -7.5 °C -12.6 °C 34225.7 hPa ENE 15 km/h 8.2 km/h 55% 0 mm FEW
07:34 -7.4 °C -12.6 °C 34222.3 hPa ESE 17.9 km/h 13.2 km/h 55% 0 mm FEW
07:39 -7.3 °C -12.6 °C 34222.3 hPa ENE 17.9 km/h 10.3 km/h 54% 0 mm FEW
07:44 -7.3 °C -12.6 °C 34222.3 hPa ESE 26.9 km/h 8.5 km/h 54% 0 mm CLR
07:49 -7.1 °C -12.6 °C 34225.7 hPa East 23.8 km/h 15.3 km/h 53% 0 mm CLR
07:54 -7.1 °C -12.7 °C 34225.7 hPa ENE 23.8 km/h 14.5 km/h 52% 0 mm CLR
07:59 -6.9 °C -12.6 °C 34225.7 hPa ESE 20.9 km/h 17.5 km/h 52% 0 mm CLR
08:04 -6.9 °C -12.5 °C 34225.7 hPa ESE 15 km/h 9.3 km/h 52% 0 mm CLR
08:09 -6.8 °C -12.6 °C 34225.7 hPa ESE 15.6 km/h 10.3 km/h 51% 0 mm CLR
08:14 -6.6 °C -12.4 °C 34225.7 hPa ENE 15 km/h 8.9 km/h 51% 0 mm CLR
08:19 -6.5 °C -12.5 °C 34225.7 hPa ENE 20.9 km/h 14 km/h 50% 0 mm CLR
08:24 -6.4 °C -12.6 °C 34229.1 hPa ESE 26.9 km/h 18.3 km/h 49% 0 mm CLR
08:29 -6.3 °C -12.4 °C 34229.1 hPa ESE 20.9 km/h 15.6 km/h 49% 0 mm CLR
08:34 -6.2 °C -12.4 °C 34229.1 hPa East 17.9 km/h 9.7 km/h 49% 0 mm FEW
08:39 -6.1 °C -12.4 °C 34232.5 hPa ENE 18.2 km/h 11.9 km/h 48% 0 mm FEW
08:44 -6 °C -12.4 °C 34232.5 hPa East 23.3 km/h 17.4 km/h 48% 0 mm FEW
08:49 -5.9 °C -12.4 °C 34232.5 hPa SE 20.8 km/h 12.2 km/h 47% 0 mm FEW
08:54 -5.8 °C -12.3 °C 34232.5 hPa ENE 20.9 km/h 16.3 km/h 47% 0 mm CLR
08:59 -5.7 °C -12.4 °C 34232.5 hPa ENE 29.8 km/h 21.7 km/h 46% 0 mm CLR
09:04 -5.5 °C -12.3 °C 34232.5 hPa ENE 23.3 km/h 14.2 km/h 46% 0 mm CLR
09:09 -5.4 °C -12.3 °C 34232.5 hPa East 25.9 km/h 18.3 km/h 45% 0 mm CLR
09:14 -5.3 °C -12.3 °C 34235.8 hPa ESE 29.8 km/h 23.8 km/h 45% 0 mm FEW
09:19 -5.4 °C -12.3 °C 34235.8 hPa ENE 29.8 km/h 16.1 km/h 45% 0 mm FEW
09:24 -5.4 °C -12.3 °C 34235.8 hPa ESE 26.9 km/h 21.2 km/h 45% 0 mm CLR
09:29 -5.3 °C -12.1 °C 34239.2 hPa East 20.9 km/h 12.9 km/h 46% 0 mm FEW
09:34 -5.2 °C -12.2 °C 34235.8 hPa East 23.8 km/h 20 km/h 45% 0 mm FEW
09:39 -5.1 °C -12.1 °C 34235.8 hPa SE 29.8 km/h 22 km/h 45% 0 mm FEW
BSWETTER.DE
Compliments of Weather Underground - 2 mb
Besucherstatistik
Besucher gesamt: 1.098.826
Besucher heute: 362
Besucher gestern: 1.219
gerade online: 19
aufrufe diese Seite: 434
counter Statistiken